{"data":{"norad_id":65667,"epoch":"2026-05-25T02:39:15.992928Z","epoch_age_seconds":65356,"freshness":"FRESH","line1":"1 65667U 25211R   26145.11060177  .00003115  00000+0  21981-3 0  9995","line2":"2 65667  97.4491 189.0679 0002287 118.1818 241.9640 15.05657378 38546","mean_motion":15.05657378,"eccentricity":0.0002287,"inclination_deg":97.4491,"raan_deg":189.0679,"arg_perigee_deg":118.1818,"mean_anomaly_deg":241.964,"bstar":0.00021981,"rev_number":3854,"period_min":95.639288263096,"perigee_km":547.90417489092,"apogee_km":551.07287080507,"semimajor_km":6927.625522848,"source":"CELESTRAK","updated_at":"2026-05-25T13:38:20.891045Z"}}